Location: Boullarre
(49.1305°N, 3.0047°E)
Time: 07:13:26
(UTC+00:00)

Cosmos 1606 - Pass Details

Date: 03 February 2023
Orbit: 488 x 510 km, 82.5° (Epoch: 22 March)

Event Time Altitude Azimuth Distance (km) Brightness Sun altitude
Rises 18:36:01 0° 356° (N) 2,651 6.3 -17.9°
Reaches altitude 10° 18:38:16 10° 5° (N) 1,760 5.3 -18.3°
Enters shadow 18:40:13 25° 24° (NNE) 1,089 4.1 -18.6°
